This demonstration page uses our WeatherBlox Daily Observations layout. Learn more.

40.92945, -100.16068

Hourly Observations for March 25, 2017

Temp ( °F °C ) Dew Point ( °F °C ) Humidity (%) Winds ( mph kmh ) Pressure ( in mb ) Visibility ( mi km ) Precip ( " mm )
12:15 am 00:15 Cloudy 42 5.5 38 3.1 85 85 NNE 9 15 30.09 1019 10 16.0934 0 0
12:35 am 00:35 Cloudy 42 5.5 38 3.3 86 86 N 8 13 30.09 1019 10 16.0934 0 0
12:55 am 00:55 Cloudy 42 5.5 38 3.4 87 87 N 9 15 30.09 1019 10 16.0934 0 0
1:15 am 01:15 Cloudy 42 5.5 38 3.2 85 85 N 8 13 30.09 1019 10 16.0934 0 0
1:35 am 01:35 Cloudy 42 5.3 37 3 85 85 N 7 11 30.09 1019 10 16.0934 0 0
1:55 am 01:55 Cloudy 41 5.1 37 3 86 86 N 6 9 30.09 1019 10 16.0934 0 0
2:15 am 02:15 Cloudy 41 5 38 3.1 88 88 N 7 11 30.09 1019 10 16.0934 0 0
2:35 am 02:35 Mostly Cloudy 40 4.3 37 2.5 88 88 NNW 10 17 30.09 1019 10 16.0934 0 0
2:55 am 02:55 Partly Cloudy 38 3.4 35 1.7 89 89 NNW 10 17 30.12 1020 10 16.0934 0 0
3:15 am 03:15 Mostly Cloudy 38 3.1 35 1.5 89 89 NNW 7 11 30.12 1020 10 16.0934 0 0
3:35 am 03:35 Cloudy 38 3.1 35 1.6 90 90 N 9 15 30.12 1020 10 16.0934 0 0
3:55 am 03:55 Cloudy 37 2.8 34 1.2 89 89 N 8 13 30.12 1020 10 16.0934 0 0
4:15 am 04:15 Cloudy 37 2.6 34 1.2 91 91 NNW 7 11 30.12 1020 7 11.26538 0 0
4:35 am 04:35 Mostly Cloudy 36 2 33 0.6 91 91 N 9 15 30.12 1020 7 11.26538 0 0
4:55 am 04:55 Partly Cloudy 35 1.5 33 0.3 92 92 N 9 15 30.12 1020 7 11.26538 0 0
5:15 am 05:15 Mostly Cloudy 34 1.1 32 0 92 92 N 9 15 30.12 1020 7 11.26538 0 0
5:35 am 05:35 Cloudy 35 1.5 33 0.3 92 92 NNE 7 11 30.12 1020 7 11.26538 0 0
5:55 am 05:55 Cloudy 35 1.5 32 0.2 91 91 N 10 17 30.12 1020 7 11.26538 0 0
6:15 am 06:15 Cloudy 35 1.5 33 0.3 92 92 NNE 9 15 30.12 1020 7 11.26538 0 0
6:35 am 06:35 Cloudy 35 1.5 32 0.1 91 91 N 14 22 30.12 1020 7 11.26538 0 0
6:55 am 06:55 Cloudy 34 1.3 32 0.1 92 92 N 13 20 30.12 1020 7 11.26538 0 0
7:15 am 07:15 Cloudy with Mist and Fog 34 1.3 32 0.2 92 92 NNE 12 19 30.12 1020 5 8.0467 0 0
7:35 am 07:35 Cloudy with Mist and Fog 35 1.5 33 0.5 93 93 NNE 13 20 30.12 1020 4 6.43736 0 0
7:55 am 07:55 Cloudy with Mist and Fog 35 1.5 33 0.6 94 94 NNE 10 17 30.12 1020 3 4.82802 0 0
8:15 am 08:15 Cloudy with Mist and Fog 35 1.6 33 0.7 94 94 N 10 17 30.12 1020 2 3.21868 0 0
8:35 am 08:35 Cloudy with Mist and Fog 35 1.5 33 0.7 94 94 N 9 15 30.12 1020 1.25 2.011675 0 0
8:55 am 08:55 Cloudy with Mist and Fog 35 1.5 33 0.7 94 94 N 10 17 30.12 1020 1 1.60934 0 0
9:15 am 09:15 Cloudy with Mist and Fog 35 1.6 34 1 96 96 N 10 17 30.12 1020 1.5 2.41401 0 0
9:35 am 09:35 Cloudy with Mist and Fog 35 1.7 34 1 95 95 N 12 19 30.12 1020 2.5 4.02335 0 0
9:55 am 09:55 Cloudy with Mist and Fog 36 2 34 1.3 95 95 N 9 15 30.12 1020 4 6.43736 0 0
10:15 am 10:15 Cloudy with Mist and Fog 36 2.3 35 1.5 95 95 N 10 17 30.12 1020 5 8.0467 0 0
10:35 am 10:35 Cloudy 37 2.7 36 2 95 95 NNW 10 17 30.12 1020 10 16.0934 0 0
10:55 am 10:55 Cloudy 38 3.3 36 2.2 93 93 N 10 17 30.12 1020 10 16.0934 0 0
11:15 am 11:15 Cloudy 40 4.4 37 2.9 90 90 N 9 15 30.09 1019 10 16.0934 0 0
11:35 am 11:35 Cloudy 41 4.8 38 3.2 90 90 N 8 13 30.09 1019 10 16.0934 0 0
11:55 am 11:55 Cloudy 42 5.6 38 3.5 87 87 N 8 13 30.09 1019 10 16.0934 0 0
12:15 pm 12:15 Cloudy 43 6.1 38 3.6 84 84 N 8 13 30.09 1019 10 16.0934 0 0
12:35 pm 12:35 Cloudy 44 6.9 39 4 82 82 NNE 9 15 30.09 1019 10 16.0934 0 0
12:55 pm 12:55 Cloudy 45 7.1 40 4.3 83 83 NNE 8 13 30.03 1017 10 16.0934 0 0
1:15 pm 13:15 Cloudy 46 7.6 40 4.5 81 81 NNE 9 15 30.03 1017 10 16.0934 0 0
1:35 pm 13:35 Cloudy 46 7.5 40 4.5 81 81 NNE 8 13 30.03 1017 10 16.0934 0 0
1:55 pm 13:55 Cloudy 47 8.2 41 4.8 79 79 N 7 11 30.03 1017 10 16.0934 0 0
2:15 pm 14:15 Cloudy 48 9 41 5.2 77 77 NNW 6 9 30 1016 10 16.0934 0 0
2:35 pm 14:35 Mostly Cloudy 49 9.2 41 5.1 76 76 N 7 11 30 1016 10 16.0934 0 0
2:55 pm 14:55 Mostly Cloudy 50 10.1 42 5.3 72 72 Calm 29.97 1015 10 16.0934 0 0
3:15 pm 15:15 Mostly Cloudy 51 10.7 43 5.9 72 72 ENE 5 7 29.94 1014 10 16.0934 0 0
3:35 pm 15:35 Partly Cloudy 52 11.2 43 5.9 70 70 NE 5 7 29.94 1014 10 16.0934 0 0
3:55 pm 15:55 Partly Cloudy 53 11.6 43 6.3 70 70 E 9 15 29.91 1013 10 16.0934 0 0
4:15 pm 16:15 Partly Cloudy 53 11.8 44 6.6 71 71 E 10 17 29.91 1013 10 16.0934 0 0
4:35 pm 16:35 Partly Cloudy 51 10.7 43 6.1 73 73 E 12 19 29.91 1013 10 16.0934 0 0
4:55 pm 16:55 Mostly Cloudy 52 10.9 43 6 72 72 E 13 20 29.91 1013 10 16.0934 0 0
5:15 pm 17:15 Partly Cloudy 51 10.5 43 6 74 74 E 12 19 29.91 1013 10 16.0934 0 0
5:35 pm 17:35 Partly Cloudy 50 10.1 42 5.8 75 75 E 9 15 29.91 1013 10 16.0934 0 0
5:55 pm 17:55 Partly Cloudy 50 10 42 5.8 75 75 ENE 10 17 29.91 1013 10 16.0934 0 0
6:15 pm 18:15 Sunny 49 9.6 42 5.5 76 76 ENE 9 15 29.91 1013 10 16.0934 0 0
6:35 pm 18:35 Mostly Cloudy 49 9.2 42 5.5 78 78 E 10 17 29.91 1013 10 16.0934 0 0
6:55 pm 18:55 Cloudy 47 8.5 41 5.1 79 79 E 10 17 29.94 1014 10 16.0934 0 0
7:15 pm 19:15 Cloudy 46 7.6 40 4.5 81 81 E 7 11 29.94 1014 10 16.0934 0 0
7:35 pm 19:35 Cloudy 46 7.6 41 4.9 83 83 E 9 15 29.94 1014 10 16.0934 0 0
7:55 pm 19:55 Cloudy 45 7.2 40 4.6 84 84 E 7 11 29.94 1014 10 16.0934 0 0
8:15 pm 20:15 Cloudy 45 7 40 4.3 83 83 ESE 6 9 29.94 1014 10 16.0934 0 0
8:35 pm 20:35 Cloudy 44 6.7 40 4.3 85 85 E 7 11 29.94 1014 10 16.0934 0 0
8:55 pm 20:55 Cloudy 44 6.7 40 4.2 84 84 Calm 29.94 1014 10 16.0934 0 0
9:15 pm 21:15 Cloudy 44 6.8 40 4.6 86 86 ENE 5 7 29.94 1014 10 16.0934 0 0
9:35 pm 21:35 Cloudy 44 6.8 41 4.9 88 88 E 6 9 29.97 1015 10 16.0934 0 0
9:55 pm 21:55 Cloudy with Mist and Fog 43 6.3 41 5 91 91 E 8 13 29.94 1014 5 8.0467 0 0
10:15 pm 22:15 Cloudy with Mist and Fog 43 6.1 41 5 93 93 E 8 13 29.94 1014 5 8.0467 0 0
10:35 pm 22:35 Cloudy 43 6 41 4.8 92 92 E 10 17 29.94 1014 7 11.26538 0 0
10:55 pm 22:55 Cloudy 43 6 40 4.7 91 91 E 10 17 29.94 1014 7 11.26538 0 0
11:15 pm 23:15 Cloudy with Mist and Fog 42 5.6 40 4.5 93 93 ESE 7 11 29.97 1015 4 6.43736 0 0
11:35 pm 23:35 Cloudy with Mist and Fog 42 5.5 40 4.5 93 93 ESE 8 13 29.97 1015 3 4.82802 0 0
11:55 pm 23:55 Cloudy with Mist and Fog 41 5.2 40 4.3 94 94 ESE 8 13 29.97 1015 2.5 4.02335 0 0

Powered by AerisWeather